Regional Weather Roundup
Issued by NWS Cleveland, OH

Home | Current Version | Previous Version | Graphics & Text | Print | Product List | Glossary On
Versions: 1 2 3 4 5 6 7 8 9 10 11 12 13 14 15 16 17 18 19 20 21 22 23 24 25 26 27 28 29 30 31 32 33 34 35 36 37 38 39 40 41 42 43 44 45 46 47 48 49 50
000
ASUS41 KCLE 032010
RWRCLE
OHIO REGIONAL WEATHER ROUNDUP
NATIONAL WEATHER SERVICE CLEVELAND, OH
300 PM EST TUE MAR 03 2015

NOTE: "FAIR" INDICATES FEW OR NO CLOUDS BELOW 12,000 FEET WITH NO
SIGNIFICANT WEATHER AND/OR OBSTRUCTIONS TO VISIBILITY.

OHZ001>008-015>018-024>027-034-035-043-044-032100-
   NORTHWEST OHIO

CITY           SKY/WX    TMP DP  RH WIND       PRES   REMARKS
DEFIANCE       CLOUDY    35  32  88 SW14G26   29.65F FOG     WCI  26
FINDLAY        LGT RAIN  36  33  89 S17       29.67F FOG
TOLEDO EXPRESS FRZ RAIN  32  30  93 S15G23    29.63F FOG     WCI  22
TOLEDO EXEC    MIX PCPN  33  30  88 S18       29.67F FOG     WCI  22
LIMA           MIX PCPN  37  32  82 S16G24    29.69F
$$

OHZ009>014-019>023-028>033-038-089-032100-
   NORTHEAST OHIO

CITY           SKY/WX    TMP DP  RH WIND       PRES   REMARKS
CLE-HOPKINS    FRZ RAIN  32  28  85 S18       29.71F FOG     WCI  20
CLE-LAKEFRONT  MIX PCPN  33  28  81 S28       29.67F WCI  20
CUY CO. ARPT   CLOUDY    34  30  86 S16G28    29.71F FOG     WCI  23
LORAIN-ELYRIA  LGT SNOW  31  28  89 S21       29.69F FOG     WCI  18
ASHTABULA      CLOUDY    30  25  81 S18G25    29.73F WCI  18
AKRON-CANTON   LGT RAIN  33  29  85 S14       29.74F VSB 1   WCI  23
WOOSTER        RAIN      33  30  88 S16G22    29.73F FOG     WCI  23
MANSFIELD      LGT RAIN  35  33  92 S22G29    29.70F FOG     WCI  23
YOUNGSTOWN     FRZ RAIN  31  27  85 S9        29.78F FOG     WCI  23
$$

OHZ042-051>053-060>062-070>072-077>081-032100-
  SOUTHWEST OHIO

CITY           SKY/WX    TMP DP  RH WIND       PRES   REMARKS
CINC-COVINGTON HVY RAIN  44  42  93 SW13      29.78F VSB 1/4
CINC-LUNKEN    HVY RAIN  42  42 100 SW5       29.79F VSB 3/4
HAMILTON       LGT RAIN  45  44  97 SW8       29.77F FOG
DAYTON         LGT RAIN  38  37  97 S13       29.74F VSB 1
WRIGHT-PAT AFB LGT RAIN  39  37  93 SW12      29.74F FOG
DAYTON GENERAL LGT RAIN  40  39  97 S17       29.74F FOG
WILMINGTON     LGT RAIN  38  37  97 S16       29.76F VSB 1/4
$$

OHZ036-037-039>041-045>050-054>059-063>069-073>076-082>088-032100-
  CENTRAL AND SOUTHEAST OHIO

CITY           SKY/WX    TMP DP  RH WIND       PRES   REMARKS
COLUMBUS       CLOUDY    35  33  92 S10       29.77F FOG     WCI  27
OSU AIRPORT    LGT RAIN  34  32  92 S10       29.75F FOG     WCI  26
BOLTON FIELD   LGT RAIN  34  32  93 S9        29.77F VSB 1   WCI  26
RICKENBACK AFB LGT RAIN  35  34  96 S10       29.77F WCI  27
NEWARK         LGT RAIN  36  34  92 S7        29.77F FOG
MARION         LGT SNOW  34  31  88 S18       29.73F FOG     WCI  23
LANCASTER      CLOUDY    40  37  89 S10       29.78F
ZANESVILLE     CLOUDY    36  34  92 S8        29.79F
NEW PHILLY     LGT RAIN  37  32  82 S5        29.79F
$$


USA.gov is the U.S. government's official web portal to all federal, state and local government web resources and services.